Location: Goettingen
(51.5300°N, 9.9433°E)
Time: 10:57:27
(UTC+02:00)

ISS - Pass Details

Date: 22 May 2018
Orbit: 402 x 407 km, 51.6° (Epoch: 24 May)

Event Time Altitude Azimuth Distance (km) Brightness Sun altitude
Rises 01:27:32 0° 272° (W) 2,319 0.0 -18.1°
Reaches altitude 10° 01:29:37 10° 273° (W) 1,459 -1.0 -18.1°
Maximum altitude 01:32:53 86° 0° (N) 409 -3.9 -18.1°
Drops below altitude 10° 01:36:10 10° 92° (E) 1,457 -1.0 -18.0°
Sets 01:38:14 0° 93° (E) 2,316 0.0 -18.0°
